RH
39 71 88 100 100 74 33 45 29 27 14 24 28 20 27 48 46 56 58 42 46 49 53 73 80 54 31 38 28 20 21 36 71 76 75 64 65 86 98 100 100 100 100 100 100 100 100 95 93
47 73 100 100 98 80 37 46 41 35 16 20 29 20 24 43 47 34 54 48 64 75 64 52 58 50 57 67 66 51 48 33 24 23 29 45 41 40 46 40 53 82 90 85 97 100 100 100 100
45 75 84 93 73 44 42 62 37 37 34 17 24 21 21 32 46 39 40 53 56 57 62 57 48 46 59 86 91 80 55 61 55 43 39 42 53 69 72 75 69 75 75 72 82 100 100 100 100
40 74 100 100 55 68 70 72 39 42 44 29 26 32 31 30 38 38 38 97 48 52 58 64 60 62 48 78 96 88 76 90 81 70 80 90 82 100 100 100 100 100 100 100 100 100 100 100 100
39 100 100 99 67 72 61 80 46 43 42 26 25 37 40 37 37 40 39 47 31 51 72 29 26 28 57 82 100 100 100 92 79 76 56 52 72 64 87 95 77 97 81 88 100 100 100 100 100
54 100 98 89 94 82 93 79 50 46 46 28 25 36 44 41 33 38 45 51 49 27 24 42 40 35 40 90 92 83 87 75 72 60 59 46 66 76 87 89 86 72 73 86 100 100 100 100 93
84 100 84 100 100 86 66 94 54 45 41 35 24 34 45 37 35 34 37 42 41 30 28 19 21 27 38 40 89 87 76 72 74 74 63 56 51 59 96 68 50 51 60 84 100 100 98 84 79
90 93 100 100 92 100 84 90 56 48 44 42 16 31 40 40 36 33 33 41 52 60 99 18 15 19 17 47 51 72 65 76 76 89 85 73 55 53 67 56 51 56 52 69 82 88 89 96 96
91 97 96 94 56 100 88 95 60 51 54 39 32 28 35 39 40 39 37 41 44 42 54 21 17 13 15 25 29 41 71 100 95 98 99 89 83 78 55 55 33 55 59 61 84 86 83 85 100
75 94 98 76 32 62 100 89 73 57 61 39 39 16 29 28 38 44 39 36 48 40 28 27 27 19 14 18 94 100 52 94 97 79 73 100 50 43 27 29 34 84 88 82 100 80 80 82 100
72 77 100 100 57 55 100 95 83 66 66 44 38 28 22 26 30 41 43 39 41 42 42 32 28 22 13 12 78 100 65 100 100 100 100 68 34 21 22 40 53 100 100 94 83 76 76 83 100
75 65 97 91 76 77 100 90 86 76 59 44 35 39 17 26 20 32 43 40 37 46 43 41 37 38 19 12 11 17 66 100 100 97 100 100 40 17 26 62 100 92 100 99 100 78 74 70 71
57 60 97 55 48 100 97 99 95 80 60 50 41 41 24 17 22 25 32 40 42 42 41 39 40 39 31 26 16 13 13 15 47 92 90 70 19 21 39 85 77 100 93 100 98 94 56 58 54
21 70 86 56 100 89 100 94 60 92 65 51 36 31 32 13 11 26 25 24 30 39 38 40 40 39 39 24 24 24 14 12 12 43 75 36 21 35 58 63 72 74 100 71 62 43 54 70 79
16 50 52 81 100 49 28 47 100 74 60 51 42 33 36 29 12 13 45 28 23 27 35 36 38 45 52 44 30 31 31 18 15 12 12 17 24 35 41 43 47 50 42 44 48 33 30 36 40
12 20 58 100 90 56 57 92 100 94 85 64 53 46 35 40 15 16 42 42 35 27 31 31 34 48 50 48 50 48 42 30 28 24 19 18 29 35 35 36 33 32 30 24 23 22 19 19 20
10 30 100 96 36 68 100 91 83 86 78 77 63 42 45 47 27 17 21 50 70 56 39 47 55 50 48 56 53 59 47 46 38 25 22 24 20 22 26 32 35 28 19 20 27 29 32 25 18
9 42 100 89 67 100 100 100 100 100 95 79 52 44 49 39 48 26 22 36 73 79 56 43 70 78 77 71 68 70 39 30 40 30 26 20 20 21 20 62 78 46 24 18 26 24 23 22 23
8 34 100 100 100 100 100 100 100 100 72 49 60 72 63 54 60 40 28 21 53 76 65 48 48 69 74 94 77 69 49 39 34 41 34 20 18 20 51 88 90 100 22 17 22 25 23 24 26
8 37 100 100 100 100 100 100 100 93 80 69 90 87 69 63 49 60 37 34 29 50 69 71 49 49 63 73 66 52 63 48 49 43 41 32 17 17 20 22 98 100 23 16 32 27 24 29 27
9 13 96 100 100 100 100 100 100 100 100 100 100 94 82 76 46 59 55 41 39 30 58 88 76 63 62 71 68 63 73 51 50 37 36 42 23 18 57 88 94 80 19 12 18 24 28 32 75
8 10 51 100 100 100 100 100 100 57 100 100 100 84 64 81 57 53 50 54 49 41 25 51 92 74 62 65 70 71 48 53 43 47 32 31 28 26 28 84 79 55 28 20 17 24 37 44 31
8 9 26 100 99 100 100 100 100 70 100 100 95 97 77 57 64 63 56 56 48 48 44 28 80 100 79 53 63 65 49 48 40 37 32 37 33 31 29 44 56 41 23 14 14 30 37 76 96
8 9 25 56 92 100 100 100 100 100 96 93 85 100 73 57 52 68 55 60 48 60 49 38 44 90 88 52 66 85 100 51 55 38 37 31 34 30 28 42 39 36 36 21 15 15 31 93 97
9 11 15 42 99 100 100 100 100 100 100 95 98 73 59 35 36 68 69 63 56 44 68 54 40 56 89 57 35 76 90 64 88 52 43 37 58 49 52 47 30 33 36 28 19 16 13 18 30
11 12 11 27 23 100 100 100 100 100 77 98 100 96 71 32 38 55 53 46 38 43 56 60 62 37 43 79 67 51 55 43 53 88 100 58 59 88 70 61 54 47 38 36 35 27 23 21 13
12 14 16 37 66 70 100 100 100 100 100 100 100 97 61 37 51 62 42 45 34 37 50 43 60 61 38 58 68 71 44 51 79 86 83 69 94 100 100 54 42 44 50 44 41 38 41 36 31
11 14 18 31 38 41 100 100 100 100 100 93 100 98 69 58 52 46 48 44 42 33 56 52 34 54 62 36 49 51 50 42 60 68 88 67 85 100 100 81 73 72 62 62 68 68 68 60 51
11 12 17 28 31 86 100 100 100 89 100 100 100 96 76 68 47 40 55 51 43 38 36 42 42 37 49 44 37 35 33 36 35 38 62 59 85 81 94 79 88 85 76 73 62 60 53 57 57
11 11 14 18 30 78 100 96 88 90 100 100 100 100 98 100 71 42 52 47 44 31 26 46 45 44 41 49 35 38 36 33 32 34 41 54 52 66 75 91 93 69 86 100 68 51 55 47 54
Wind_Speed
11 18 21 18 23 23 30 36 35 40 31 30 29 27 28 28 31 27 23 21 18 17 14 11 6 4 2 1 5 11 20 26 29 29 27 25 28 31 33 37 42 36 35 34 34 29 22 23 21
10 11 14 16 9 22 28 35 30 39 35 32 29 27 27 28 29 29 25 23 19 17 15 13 9 8 8 7 6 5 3 5 10 18 23 24 23 24 24 26 32 36 35 32 29 26 23 20 20
7 8 10 7 6 18 22 30 29 37 37 29 30 30 28 26 27 28 29 24 19 14 12 12 13 11 6 7 6 7 7 5 5 6 10 13 16 18 21 21 24 24 28 28 26 25 24 23 19
9 9 14 10 7 14 21 25 31 34 35 33 28 30 30 27 26 28 29 30 23 20 17 13 13 8 11 7 5 6 7 7 6 6 4 5 7 9 12 12 5 2 9 16 18 16 16 16 14
14 10 5 11 8 10 20 18 27 30 37 34 26 27 29 28 27 27 28 28 30 24 21 18 18 16 7 9 9 6 7 8 8 7 4 5 2 3 4 6 4 3 2 10 14 12 16 15 20
14 11 8 5 3 12 16 20 24 26 32 37 27 25 28 28 25 27 27 28 27 29 25 24 20 18 11 5 2 5 3 6 7 6 5 5 5 7 4 2 2 2 3 8 12 14 16 16 14
18 16 9 2 11 7 18 13 18 24 34 33 29 25 26 28 25 25 25 25 28 28 30 26 23 19 14 4 4 2 2 4 7 7 7 6 7 5 2 3 4 2 3 9 12 12 12 13 13
21 16 15 11 6 8 9 10 15 22 29 30 30 27 24 25 28 26 25 27 26 30 21 28 27 23 17 9 5 2 2 3 5 5 6 6 7 5 3 2 2 3 5 9 13 13 15 15 13
23 19 17 11 12 6 11 11 11 19 24 26 30 27 24 24 26 28 26 27 28 29 30 29 30 29 25 20 21 18 8 7 9 13 12 12 10 5 5 7 3 4 8 12 14 13 15 16 11
26 25 20 17 15 13 17 3 9 14 18 22 27 25 26 26 24 27 27 25 28 31 34 32 36 33 31 31 27 23 19 21 11 9 22 12 23 13 17 10 1 8 13 15 15 14 14 13 7
29 28 19 13 15 11 11 4 5 9 11 20 23 28 27 29 26 23 24 25 27 31 34 35 34 35 32 36 28 21 23 14 12 11 9 15 24 24 19 3 11 16 13 11 14 13 10 9 7
35 28 23 20 18 15 14 9 9 5 5 15 21 27 25 26 30 25 21 22 22 26 32 37 36 36 35 33 34 29 24 17 5 29 14 17 27 10 7 21 19 16 11 4 10 9 9 9 7
36 32 25 16 18 20 20 13 15 1 3 9 18 23 25 23 28 28 24 21 23 24 29 35 38 38 36 34 35 32 29 20 19 23 8 6 3 15 20 21 19 17 10 3 12 7 7 10 11
37 33 31 22 18 23 20 24 23 10 7 7 14 17 21 20 26 26 29 27 23 24 26 32 37 39 40 37 36 35 32 30 21 13 10 7 12 22 22 20 19 23 13 10 10 9 12 11 11
38 33 35 29 25 23 17 21 15 10 2 4 11 19 16 20 20 24 24 28 28 26 25 27 32 34 37 39 39 36 37 37 34 26 20 22 21 21 21 22 23 21 18 18 16 11 10 10 10
39 34 35 33 30 24 24 18 21 13 10 12 20 16 11 14 17 22 23 25 28 30 30 32 29 32 34 35 38 40 39 38 38 36 32 30 25 22 22 25 26 25 24 22 23 21 20 18 16
42 37 35 32 25 23 26 27 33 30 22 15 24 13 9 8 11 17 21 23 24 28 27 28 30 32 33 33 34 38 39 39 38 39 38 32 28 25 24 24 24 23 22 24 24 25 28 27 27
44 41 35 30 28 29 32 29 31 28 24 19 16 12 9 5 5 11 16 19 22 25 25 26 26 27 30 33 35 35 38 39 39 38 38 36 31 31 26 31 27 22 17 18 22 26 25 28 26
50 48 39 36 38 28 34 30 32 27 17 15 18 13 13 7 1 7 14 15 19 22 23 25 27 24 27 29 33 33 36 41 42 40 39 38 36 32 27 26 25 18 15 11 16 19 23 21 22
56 54 44 42 41 35 31 35 30 26 23 23 21 18 12 7 4 2 6 12 14 18 21 21 25 27 29 34 33 35 37 37 40 40 39 38 38 36 31 30 27 11 4 9 14 16 17 18 18
62 60 54 40 48 44 34 30 33 26 30 27 26 25 17 15 10 5 2 4 9 11 17 18 20 22 25 28 32 33 35 37 38 41 39 37 37 41 35 31 34 20 13 8 10 13 13 12 14
69 64 61 51 47 43 41 42 38 39 35 32 36 33 25 20 17 10 5 3 3 9 8 13 13 15 19 25 26 28 30 33 36 38 41 38 39 41 43 40 24 24 22 16 11 15 11 10 13
72 69 61 50 54 46 38 49 50 43 37 34 37 34 27 23 22 15 11 7 7 3 8 7 10 13 14 16 20 24 27 32 35 34 35 35 38 40 41 39 34 32 30 28 22 11 11 11 17
76 73 70 71 61 58 44 37 51 48 53 50 38 35 27 25 27 24 19 12 9 7 1 6 6 9 12 12 15 15 12 23 29 30 33 34 38 37 40 38 38 35 31 31 29 24 16 8 11
78 75 77 75 60 66 58 48 41 44 49 57 47 42 36 43 36 31 24 17 11 12 6 1 3 4 7 8 8 8 14 11 18 22 27 30 31 34 35 37 38 37 39 38 34 29 24 20 15
82 82 83 73 80 72 63 54 53 40 54 51 50 52 47 50 46 37 26 20 17 16 13 7 1 3 2 6 6 7 6 7 10 9 14 17 19 22 25 26 28 31 32 34 36 33 25 22 22
87 85 85 81 74 80 67 44 54 60 61 58 54 50 48 49 42 40 35 27 23 24 18 12 10 5 6 7 7 4 3 2 5 8 8 6 12 14 23 18 23 26 25 28 29 31 29 26 28
86 90 89 85 83 74 77 61 58 58 60 62 57 54 50 50 49 48 35 34 27 29 25 19 13 11 10 9 9 7 6 4 3 1 6 6 9 5 13 13 13 18 18 18 22 23 25 28 28
86 89 89 89 87 78 89 89 76 71 61 56 57 58 56 56 57 48 46 37 31 34 30 23 19 15 14 15 14 12 9 9 8 7 3 6 5 3 7 7 8 9 9 9 12 15 24 25 27
91 90 93 95 94 94 86 100 87 81 78 61 67 63 60 60 59 50 52 44 36 40 34 25 26 24 19 18 19 16 14 13 12 12 9 8 10 10 12 11 9 6 5 8 10 13 13 18 21
Wind_Direction
71 57 46 29 9 25 43 28 26 28 32 40 37 45 49 48 42 45 51 54 64 65 76 74 65 64 89 199 218 234 244 249 244 252 253 254 253 251 252 249 249 265 270 270 272 272 254 262 265
94 67 22 59 353 5 40 22 23 30 29 41 43 46 47 46 49 47 49 58 64 62 55 45 48 73 85 87 82 96 127 203 228 234 235 240 247 250 252 251 250 251 257 258 261 259 250 249 254
98 60 81 23 356 354 28 20 30 32 30 35 46 48 46 47 50 48 54 57 52 56 56 50 45 46 66 85 88 75 98 116 149 174 205 223 235 246 253 258 258 256 252 252 251 244 245 253 259
128 115 83 330 355 10 11 9 32 33 24 28 39 48 48 49 53 51 53 72 58 54 48 37 44 40 49 86 99 93 90 86 92 138 164 184 214 230 241 243 198 244 240 237 236 226 228 220 222
147 138 102 238 354 339 346 12 39 30 26 30 33 42 48 51 53 53 53 55 53 51 46 44 44 38 55 76 97 106 88 93 74 60 77 101 163 216 210 230 193 12 280 213 209 216 206 213 211
174 165 182 190 352 313 332 334 36 28 24 25 35 39 46 51 54 56 56 53 51 50 51 44 46 41 44 88 150 105 83 57 39 37 22 48 118 152 133 112 354 289 188 175 195 205 210 214 211
176 174 168 214 207 284 319 341 34 27 20 24 33 42 44 51 54 55 55 50 48 44 45 41 41 40 44 80 199 242 99 80 52 39 42 40 43 70 160 249 251 242 201 167 165 168 173 176 172
181 181 191 242 165 225 306 319 44 27 25 23 29 43 44 49 53 56 59 53 52 53 49 38 41 40 37 50 92 112 66 42 33 42 15 344 346 342 203 174 230 192 169 168 164 157 151 152 157
183 181 175 206 214 286 268 287 54 23 21 16 21 46 45 47 51 53 54 56 54 54 51 44 45 46 54 69 76 66 71 91 53 12 16 358 355 338 273 267 300 180 144 154 151 157 162 158 153
192 181 183 213 215 216 248 223 41 25 13 27 23 37 48 46 50 54 52 57 58 55 56 52 48 50 58 70 84 69 73 83 83 95 49 352 322 328 317 310 298 148 140 150 159 165 160 166 166
202 197 188 216 225 218 218 214 66 14 8 25 29 27 44 43 47 50 51 57 57 57 54 55 53 53 58 71 83 98 101 86 127 20 26 275 316 320 316 25 133 152 139 145 159 162 166 180 172
200 199 203 213 217 224 215 261 292 336 356 27 37 22 36 45 48 50 54 53 56 56 56 58 58 53 58 66 76 82 99 97 45 20 14 36 312 322 67 107 124 130 127 120 188 166 184 192 190
208 200 204 195 205 192 188 230 257 208 118 39 25 25 27 43 46 51 50 52 54 59 60 58 60 57 56 62 66 72 71 77 123 190 19 315 356 78 94 108 120 141 135 147 169 153 160 132 118
208 207 201 194 207 186 200 236 257 205 113 18 14 1 19 38 54 52 51 51 53 59 59 60 60 60 57 58 61 65 69 71 87 146 122 85 83 87 96 107 122 128 139 145 130 146 137 125 128
208 207 214 206 198 197 228 229 210 155 100 351 349 328 2 23 48 55 53 50 51 53 55 57 57 60 59 60 59 56 54 56 62 74 80 78 82 86 95 102 113 122 128 124 117 117 109 117 127
205 206 214 196 203 219 216 234 221 260 263 277 297 323 340 27 37 56 59 55 53 53 59 57 57 59 59 61 57 54 54 53 52 55 62 72 79 88 98 102 104 106 104 104 101 89 85 90 109
201 199 188 189 205 206 209 224 242 244 249 260 286 292 314 35 29 51 57 58 54 52 55 53 55 58 60 58 55 54 54 54 56 56 57 70 77 81 83 87 84 83 94 103 98 102 97 95 98
200 195 189 191 204 202 210 211 220 233 246 254 266 284 282 4 23 46 49 59 56 54 54 51 55 52 54 57 52 51 52 55 59 59 59 62 68 78 89 84 72 59 90 105 111 107 100 96 91
196 195 182 187 192 193 208 206 221 219 216 243 254 248 261 303 360 50 57 53 58 54 55 54 52 53 54 54 50 50 51 54 57 61 61 63 66 73 86 93 93 72 69 105 116 115 106 92 89
198 195 191 188 197 202 202 213 220 220 238 250 245 229 235 257 223 264 59 52 48 58 54 59 57 52 55 54 53 50 51 52 54 56 62 64 69 75 74 91 89 127 49 119 124 121 105 100 77
199 200 191 189 196 202 206 218 219 212 231 236 229 231 234 249 233 221 271 25 40 49 60 59 61 54 48 49 52 48 45 48 52 54 59 62 62 67 76 87 105 86 82 114 116 99 100 97 134
202 199 197 192 197 193 204 212 223 246 220 237 230 226 242 238 245 228 221 271 353 36 61 59 62 57 50 43 52 49 52 52 53 56 57 57 61 64 66 75 84 65 57 57 78 104 123 126 104
199 200 194 198 198 189 200 212 221 226 204 182 225 224 239 236 236 240 231 226 259 26 40 55 67 69 58 42 50 55 59 54 54 60 59 58 61 67 70 69 66 64 62 63 63 93 123 134 116
199 201 198 203 198 191 187 201 211 210 208 210 216 219 222 236 253 240 241 238 247 259 342 43 66 73 81 53 57 70 65 55 60 65 61 68 69 70 74 71 69 68 66 71 72 70 69 81 122
200 200 202 202 202 205 200 205 206 211 212 218 222 226 234 249 246 253 237 241 258 258 238 237 47 81 103 88 70 67 86 61 60 72 74 74 67 68 67 67 73 73 70 70 71 69 68 72 82
199 203 205 204 206 207 204 210 211 209 216 218 240 240 237 243 243 238 239 250 269 249 245 240 180 160 134 128 114 115 92 83 55 72 67 56 72 58 60 60 56 61 64 69 70 75 75 71 68
201 202 205 202 207 205 204 211 219 224 232 235 227 226 225 231 230 231 237 250 264 254 249 246 229 219 206 177 162 164 190 104 48 49 43 48 26 45 55 60 69 62 63 69 72 71 70 70 68
207 203 204 206 205 203 204 203 213 214 221 226 223 227 231 230 232 241 230 241 254 260 241 238 231 217 226 213 199 194 241 237 274 360 353 345 347 46 352 23 61 71 64 64 65 62 61 62 62
209 206 206 207 206 204 205 207 209 206 218 225 229 234 232 235 237 242 243 240 258 253 242 233 240 231 217 228 227 224 224 256 257 242 282 288 295 281 301 314 3 26 52 54 56 73 75 61 60
210 208 208 207 208 208 207 208 210 212 217 229 237 240 234 232 233 236 239 244 249 242 231 232 237 234 226 225 230 238 243 245 258 259 248 276 277 281 286 318 318 339 13 33 44 55 81 64 62